Location: ČR
(50.0000°N, 15.0000°E)
Time: 09:29:30
(UTC+02:00)

Tiros 1 despin weight - Visible Passes

Search period start: 20 May 2026 00:00
Search period end: 30 May 2026 00:00
Orbit: 555 x 591 km, 48.2° (Epoch: 19 May)

Date Brightness Start Highest point End Pass type
(mag) Time Alt. Az. Time Alt. Az. Time Alt. Az.
21 May ? 02:56:03 11° SSE 02:57:09 12° SE 02:58:51 10° ESE visible
22 May ? 02:57:29 15° SSE 02:58:41 17° SE 03:01:28 10° ESE visible
23 May ? 02:58:52 20° S 03:00:15 23° SSE 03:03:38 10° E visible
24 May ? 03:00:11 23° S 03:01:51 30° SSE 03:05:36 10° E visible
25 May ? 01:25:23 10° ESE 01:25:23 10° ESE 01:25:30 10° ESE visible
25 May ? 03:01:27 23° SSW 03:03:30 38° SSE 03:07:28 10° E visible
26 May ? 01:26:36 15° ESE 01:26:36 15° ESE 01:28:06 10° ESE visible
26 May ? 03:02:41 22° SW 03:05:10 47° SSE 03:09:17 10° E visible
27 May ? 01:27:47 21° SE 01:27:47 21° SE 01:30:15 10° E visible
27 May ? 03:03:51 18° WSW 03:06:52 56° SSE 03:11:03 10° E visible
28 May ? 01:28:53 29° SE 01:28:53 29° SE 01:32:12 10° E visible
28 May ? 03:04:56 14° WSW 03:08:35 64° S 03:12:49 10° E visible
29 May ? 01:29:53 38° SSE 01:30:04 38° SSE 01:34:03 10° E visible
29 May ? 03:06:01 10° WSW 03:10:19 69° S 03:14:34 10° E visible
